Location: Ethel Rock
(53.4667°N, 4.5667°W)
Time: 05:31:17
(UTC+00:00)

CZ-4B R/B - Pass Details

Date: 24 October 2020
Orbit: 808 x 882 km, 99.1° (Epoch: 25 November)

Event Time Altitude Azimuth Distance (km) Brightness Sun altitude
Rises 06:18:37 0° 19° (NNE) 3,398 6.5 -7.2°
Reaches altitude 10° 06:21:06 10° 25° (NNE) 2,448 5.8 -6.8°
Maximum altitude 06:26:19 47° 99° (E) 1,076 4.4 -6.1°
Drops below altitude 10° 06:31:25 10° 174° (S) 2,397 5.8 -5.3°
Sets 06:33:49 0° 180° (S) 3,320 6.5 -5.0°
